This is the latest recevied weather packets stored in our database for station/object KI5MKI. If no packets are shown the sender has not sent any weather packets the latest 1 day(s).
| Time | Temp. | Humidity | Pressure | Rain* | Wind** | Luminosity | Snow |
|---|---|---|---|---|---|---|---|
| 1778046844 | 15° C | 78% | 1009.8 hPa | 0 mm | - | 0 W/m² | - |
| 1778045934 | 15.56° C | 78% | 1009.7 hPa | 0 mm | - | 0 W/m² | - |
| 1778045632 | 15.56° C | 78% | 1009.8 hPa | 0 mm | - | 0 W/m² | - |
| 1778044726 | 15.56° C | 78% | 1009.7 hPa | 0 mm | - | 0 W/m² | - |
| 1778044422 | 15.56° C | 79% | 1009.5 hPa | 0 mm | - | 0 W/m² | - |
| 1778043817 | 15.56° C | 78% | 1009.8 hPa | 0 mm | - | 0 W/m² | - |
| 1778043514 | 16.11° C | 78% | 1009.6 hPa | 0 mm | - | 0 W/m² | - |
| 1778042907 | 16.11° C | 78% | 1009.6 hPa | 0 mm | - | 0 W/m² | - |
| 1778042605 | 16.11° C | 78% | 1009.2 hPa | 0 mm | - | 0 W/m² | - |
| 1778042302 | 16.67° C | 78% | 1009.1 hPa | 0 mm | - | 0 W/m² | - |
| 1778041698 | 16.67° C | 78% | 1009.3 hPa | 0 mm | - | 0 W/m² | - |
| 1778041397 | 16.67° C | 78% | 1009.3 hPa | 0 mm | - | 0 W/m² | - |
| 1778041095 | 16.67° C | 77% | 1009.2 hPa | 0 mm | - | 0 W/m² | - |
| 1778040791 | 17.22° C | 77% | 1009.1 hPa | 0 mm | - | 0 W/m² | - |
| 1778040489 | 17.22° C | 76% | 1008.8 hPa | 0 mm | - | 0 W/m² | - |
| 1778040186 | 17.78° C | 76% | 1009 hPa | 0 mm | - | 0 W/m² | - |
| 1778039882 | 17.78° C | 76% | 1009.2 hPa | 0 mm | - | 0 W/m² | - |
| 1778039276 | 18.89° C | 76% | 1008.8 hPa | 0 mm | - | 0 W/m² | - |
| 1778038974 | 18.89° C | 76% | 1008.5 hPa | 0 mm | - | 0 W/m² | - |
| 1778038367 | 19.44° C | 75% | 1008.8 hPa | 0 mm | - | 0 W/m² | - |
| 1778038064 | 20° C | 76% | 1008.4 hPa | 0 mm | - | 0 W/m² | - |
| 1778037761 | 20° C | 75% | 1008.7 hPa | 0 mm | - | 0 W/m² | - |
| 1778037458 | 20° C | 75% | 1008.2 hPa | 0 mm | - | 0 W/m² | - |
| 1778037155 | 20.56° C | 74% | 1008.3 hPa | 0 mm | - | 0 W/m² | - |
| 1778036853 | 21.11° C | 73% | 1008.2 hPa | 0 mm | - | 0 W/m² | - |
* Rain latest hour (hover to see other rain measurements)
** Current wind speed in m/s (hover to see current wind gust speed)